Tracking 18945 objects as of 19-Jan-2018
HD Live streaming from Space Station
objects crossing your sky now

FENGYUN 1C DEB

Track FENGYUN 1C DEB now!
10-day predictions


NORAD ID: 30527
Int'l Code: 1999-025AJR
Perigee: 847.3 km
Apogee: 1,490.6 km
Inclination: 100.3 °
Period: 108.6 minutes
Semi major axis: 7539 km
RCS: 0.0117 m2 (small)
Launch date: May 10, 1999
Source: People's Republic of China (PRC)
Launch site: Taiyaun Space Center, China (TSC)

Note: This is SATELLITE DEBRIS
aabbcc
Your satellite tracking list
Your tracking list is empty




NASA's NSSDC Master Catalog

Two Line Element Set (TLE):
1 30527U 99025AJR 18018.59880203 +.00000196 +00000-0 +33457-3 0  9996
2 30527 100.2796 068.8930 0426552 184.2441 341.5774 13.26022740530721
Source of the keplerian elements: AFSPC